LGL203 ELLX-HETB

Flight info

Callsign LGL203
Flight time 4h 2m
Altitude 35000
Route EXCOS DCT PITES M150 GEBDA Y173 PABLA Z721 UTABA GEDSO SABAD VRANA AKIKA TALAS UN130 MES UL609 RDS UL995 VANZA N134 KOMEZ LAKTO L324 GENIV L550 DATOK GISTA
Aircraft B738/M-VGD/A

Departure

Time 2026-04-26 06:28
Airport Luxembourg-Findel International Airport (ELLX)

Arrival

Time 2026-04-26 10:30
Airport Taba International Airport (HETB)
Time Latitude Longitude Altitude Speed Heading
2026-04-26 06:02 49.63348 6.21686 1229 ft 0 kts 330°
2026-04-26 06:16 49.63347 6.21687 1229 ft 1 kts 330°
2026-04-26 06:16 49.63327 6.21705 1229 ft 3 kts 330°
2026-04-26 06:17 49.63310 6.21722 1229 ft 4 kts 307°
2026-04-26 06:17 49.63307 6.21751 1229 ft 3 kts 240°
2026-04-26 06:17 49.63318 6.21780 1229 ft 1 kts 240°
2026-04-26 06:17 49.63318 6.21781 1229 ft 0 kts 240°
2026-04-26 06:20 49.63308 6.21754 1229 ft 6 kts 240°
2026-04-26 06:20 49.63279 6.21652 1229 ft 14 kts 265°
2026-04-26 06:20 49.63233 6.21536 1229 ft 13 kts 176°
2026-04-26 06:21 49.63148 6.21600 1229 ft 14 kts 147°
2026-04-26 06:21 49.63068 6.21601 1225 ft 13 kts 232°
2026-04-26 06:21 49.63023 6.21467 1226 ft 15 kts 243°
2026-04-26 06:21 49.62974 6.21312 1230 ft 16 kts 245°
2026-04-26 06:22 49.62925 6.21154 1232 ft 17 kts 243°
2026-04-26 06:22 49.62871 6.20983 1233 ft 18 kts 243°
2026-04-26 06:22 49.62819 6.20814 1238 ft 17 kts 245°
2026-04-26 06:22 49.62743 6.20671 1243 ft 17 kts 219°
2026-04-26 06:23 49.62651 6.20559 1252 ft 17 kts 224°
2026-04-26 06:23 49.62565 6.20405 1232 ft 21 kts 229°
2026-04-26 06:23 49.62475 6.20205 1222 ft 25 kts 239°
2026-04-26 06:23 49.62379 6.19964 1207 ft 28 kts 239°
2026-04-26 06:24 49.62279 6.19697 1192 ft 25 kts 239°
2026-04-26 06:24 49.62188 6.19448 1177 ft 28 kts 240°
2026-04-26 06:24 49.62125 6.19281 1172 ft 26 kts 240°
2026-04-26 06:24 49.62049 6.19078 1162 ft 21 kts 240°
2026-04-26 06:25 49.61974 6.18873 1157 ft 23 kts 240°
2026-04-26 06:25 49.61883 6.18735 1156 ft 6 kts 211°
2026-04-26 06:25 49.61849 6.18714 1156 ft 5 kts 187°
2026-04-26 06:25 49.61816 6.18728 1155 ft 5 kts 148°
2026-04-26 06:26 49.61813 6.18732 1156 ft 0 kts 143°
2026-04-26 06:26 49.61799 6.18751 1157 ft 6 kts 140°
2026-04-26 06:26 49.61772 6.18799 1160 ft 6 kts 87°
2026-04-26 06:26 49.61780 6.18827 1161 ft 0 kts 60°
2026-04-26 06:27 49.61838 6.18983 1164 ft 48 kts 59°
2026-04-26 06:27 49.62117 6.19724 1196 ft 109 kts 60°
2026-04-26 06:28 49.62574 6.20972 1246 ft 157 kts 60°
2026-04-26 06:28 49.63124 6.22526 1819 ft 165 kts 63°
2026-04-26 06:28 49.63547 6.24177 2700 ft 165 kts 70°
2026-04-26 06:28 49.63967 6.25835 3386 ft 169 kts 70°
2026-04-26 06:29 49.64094 6.27778 3592 ft 199 kts 100°
2026-04-26 06:29 49.63385 6.29712 3810 ft 219 kts 126°
2026-04-26 06:29 49.62456 6.31699 4048 ft 235 kts 121°
2026-04-26 06:29 49.61585 6.33904 4387 ft 251 kts 118°
2026-04-26 06:30 49.61063 6.36514 4796 ft 263 kts 86°
2026-04-26 06:30 49.61602 6.39165 5529 ft 263 kts 54°
2026-04-26 06:30 49.62886 6.41191 6228 ft 266 kts 37°
2026-04-26 06:30 49.64378 6.42828 6868 ft 270 kts 33°
2026-04-26 06:31 49.65958 6.44457 7550 ft 272 kts 33°
2026-04-26 06:31 49.67528 6.46101 8242 ft 274 kts 33°
2026-04-26 06:31 49.69104 6.47784 8954 ft 276 kts 34°
2026-04-26 06:31 49.70615 6.49631 9620 ft 281 kts 48°
2026-04-26 06:32 49.71533 6.52305 10267 ft 287 kts 75°
2026-04-26 06:32 49.71577 6.55442 10608 ft 306 kts 102°
2026-04-26 06:32 49.70743 6.58588 10775 ft 327 kts 115°
2026-04-26 06:32 49.69655 6.61796 10915 ft 347 kts 117°
2026-04-26 06:33 49.68472 6.65134 11255 ft 359 kts 117°
2026-04-26 06:33 49.67260 6.68535 11818 ft 363 kts 118°
2026-04-26 06:33 49.66042 6.71967 12473 ft 366 kts 118°
2026-04-26 06:33 49.64821 6.75431 13092 ft 370 kts 117°
2026-04-26 06:34 49.63592 6.78945 13721 ft 374 kts 118°
2026-04-26 06:34 49.62353 6.82498 14346 ft 378 kts 118°
2026-04-26 06:34 49.61108 6.86077 14962 ft 380 kts 118°
2026-04-26 06:34 49.59854 6.89681 15609 ft 382 kts 118°
2026-04-26 06:35 49.58595 6.93300 16233 ft 385 kts 118°
2026-04-26 06:35 49.57320 6.96958 16828 ft 388 kts 118°
2026-04-26 06:35 49.56035 7.00640 17429 ft 392 kts 118°
2026-04-26 06:35 49.54741 7.04345 18064 ft 394 kts 118°
2026-04-26 06:36 49.53437 7.08071 18669 ft 397 kts 118°
2026-04-26 06:36 49.52141 7.11772 19171 ft 400 kts 119°
2026-04-26 06:36 49.50815 7.15548 19681 ft 403 kts 119°
2026-04-26 06:36 49.49476 7.19359 20143 ft 407 kts 119°
2026-04-26 06:37 49.48125 7.23199 20631 ft 410 kts 119°
2026-04-26 06:37 49.46760 7.27072 21110 ft 413 kts 119°
2026-04-26 06:37 49.45383 7.30975 21574 ft 417 kts 119°
2026-04-26 06:37 49.43995 7.34900 22040 ft 420 kts 119°
2026-04-26 06:38 49.42592 7.38861 22498 ft 423 kts 119°
2026-04-26 06:38 49.41181 7.42843 22957 ft 427 kts 119°
2026-04-26 06:38 49.39755 7.46856 23408 ft 430 kts 120°
2026-04-26 06:38 49.38316 7.50903 23841 ft 433 kts 120°
2026-04-26 06:39 49.36867 7.54972 24208 ft 436 kts 120°
2026-04-26 06:39 49.35409 7.59058 24588 ft 438 kts 120°
2026-04-26 06:39 49.33943 7.63158 24976 ft 440 kts 120°
2026-04-26 06:39 49.32468 7.67280 25343 ft 442 kts 120°
2026-04-26 06:40 49.30984 7.71422 25694 ft 444 kts 120°
2026-04-26 06:40 49.29492 7.75582 26042 ft 447 kts 120°
2026-04-26 06:40 49.27989 7.79762 26376 ft 449 kts 120°
2026-04-26 06:40 49.26477 7.83959 26700 ft 451 kts 120°
2026-04-26 06:41 49.24959 7.88180 27027 ft 453 kts 120°
2026-04-26 06:41 49.23460 7.92359 27339 ft 455 kts 120°
2026-04-26 06:41 49.21929 7.96624 27645 ft 458 kts 120°
2026-04-26 06:41 49.20390 8.00908 27940 ft 460 kts 120°
2026-04-26 06:42 49.18844 8.05201 28231 ft 462 kts 120°
2026-04-26 06:42 49.17287 8.09520 28530 ft 464 kts 121°
2026-04-26 06:42 49.15723 8.13851 28819 ft 466 kts 121°
2026-04-26 06:42 49.14149 8.18199 29106 ft 468 kts 121°
2026-04-26 06:43 49.12537 8.22530 29360 ft 470 kts 126°
2026-04-26 06:43 49.10360 8.26208 29552 ft 467 kts 144°
2026-04-26 06:43 49.07610 8.28775 29854 ft 463 kts 159°
2026-04-26 06:43 49.04553 8.30172 30171 ft 457 kts 174°
2026-04-26 06:44 49.01407 8.30750 30547 ft 454 kts 176°
2026-04-26 06:44 48.98309 8.31264 30850 ft 453 kts 176°
2026-04-26 06:44 48.95169 8.31842 31120 ft 454 kts 175°
2026-04-26 06:44 48.92038 8.32482 31413 ft 454 kts 175°
2026-04-26 06:45 48.88919 8.33139 31731 ft 453 kts 175°
2026-04-26 06:45 48.85798 8.33789 32028 ft 452 kts 175°
2026-04-26 06:45 48.82686 8.34495 32300 ft 454 kts 169°
2026-04-26 06:45 48.79710 8.36175 32524 ft 460 kts 153°
2026-04-26 06:46 48.77112 8.39038 32820 ft 464 kts 137°
2026-04-26 06:46 48.75068 8.42837 33103 ft 466 kts 127°
2026-04-26 06:46 48.73208 8.46861 33345 ft 467 kts 127°
2026-04-26 06:46 48.71356 8.50905 33520 ft 468 kts 127°
2026-04-26 06:47 48.69492 8.54951 33751 ft 468 kts 127°
2026-04-26 06:47 48.67616 8.58977 34034 ft 467 kts 127°
2026-04-26 06:47 48.65733 8.62977 34297 ft 466 kts 127°
2026-04-26 06:47 48.63843 8.66958 34504 ft 466 kts 127°
2026-04-26 06:48 48.61944 8.70940 34694 ft 466 kts 127°
2026-04-26 06:48 48.60064 8.74869 34918 ft 466 kts 127°
2026-04-26 06:48 48.58170 8.78823 35164 ft 464 kts 127°
2026-04-26 06:49 48.54360 8.86758 35233 ft 468 kts 127°
2026-04-26 06:49 48.50550 8.94679 35222 ft 464 kts 127°
2026-04-26 06:50 48.46765 9.02528 35230 ft 462 kts 127°
2026-04-26 06:50 48.42985 9.10340 35224 ft 459 kts 128°
2026-04-26 06:51 48.39220 9.18099 35222 ft 458 kts 128°
2026-04-26 06:51 48.33591 9.29660 35219 ft 459 kts 128°
2026-04-26 06:52 48.29808 9.37404 35225 ft 460 kts 128°
2026-04-26 06:52 48.26005 9.45168 35228 ft 462 kts 128°
2026-04-26 06:53 48.22246 9.53023 35225 ft 464 kts 126°
2026-04-26 06:53 48.18544 9.60982 35233 ft 466 kts 126°
2026-04-26 06:54 48.14908 9.68778 35234 ft 467 kts 126°
2026-04-26 06:54 48.11192 9.76691 35239 ft 467 kts 126°
2026-04-26 06:55 48.07465 9.84582 35232 ft 468 kts 126°
2026-04-26 06:55 48.03701 9.92528 35230 ft 467 kts 126°
2026-04-26 06:56 47.99934 10.00455 35230 ft 467 kts 126°
2026-04-26 06:56 47.96170 10.08355 35235 ft 466 kts 126°
2026-04-26 06:57 47.92432 10.16178 35234 ft 465 kts 126°
2026-04-26 06:57 47.88678 10.24013 35234 ft 464 kts 126°
2026-04-26 06:58 47.84920 10.31832 35229 ft 464 kts 126°
2026-04-26 06:58 47.81158 10.39639 35224 ft 463 kts 126°
2026-04-26 06:59 47.77400 10.47414 35217 ft 463 kts 127°
2026-04-26 06:59 47.73632 10.55187 35225 ft 463 kts 127°
2026-04-26 07:00 47.69881 10.62903 35225 ft 463 kts 127°
2026-04-26 07:00 47.66102 10.70656 35227 ft 464 kts 127°
2026-04-26 07:01 47.62305 10.78425 35226 ft 465 kts 127°
2026-04-26 07:01 47.58498 10.86191 35229 ft 466 kts 127°
2026-04-26 07:02 47.54677 10.93963 35222 ft 467 kts 127°
2026-04-26 07:02 47.50845 11.01736 35232 ft 467 kts 127°
2026-04-26 07:03 47.47027 11.09460 35229 ft 468 kts 127°
2026-04-26 07:03 47.43173 11.17233 35239 ft 469 kts 127°
2026-04-26 07:04 47.39315 11.24993 35235 ft 469 kts 127°
2026-04-26 07:04 47.35444 11.32757 35234 ft 469 kts 127°
2026-04-26 07:05 47.31566 11.40514 35243 ft 469 kts 127°
2026-04-26 07:05 47.27686 11.48253 35234 ft 469 kts 127°
2026-04-26 07:06 47.23804 11.55973 35235 ft 469 kts 127°
2026-04-26 07:06 47.19944 11.63629 35233 ft 468 kts 127°
2026-04-26 07:07 47.16058 11.71317 35236 ft 468 kts 127°
2026-04-26 07:07 47.12172 11.78986 35229 ft 468 kts 127°
2026-04-26 07:08 47.08275 11.86654 35218 ft 468 kts 127°
2026-04-26 07:08 47.04369 11.94297 35213 ft 468 kts 127°
2026-04-26 07:09 47.00450 12.01934 35218 ft 468 kts 127°
2026-04-26 07:09 46.96524 12.09571 35211 ft 469 kts 127°
2026-04-26 07:11 46.86712 12.28576 35231 ft 469 kts 127°
2026-04-26 07:11 46.82769 12.36176 35230 ft 469 kts 127°
2026-04-26 07:12 46.79486 12.42490 35229 ft 469 kts 127°
2026-04-26 07:12 46.75537 12.50062 35211 ft 469 kts 127°
2026-04-26 07:13 46.71584 12.57623 35192 ft 468 kts 127°
2026-04-26 07:13 46.67634 12.65159 35175 ft 468 kts 127°
2026-04-26 07:14 46.63672 12.72696 35136 ft 469 kts 127°
2026-04-26 07:14 46.59708 12.80216 35123 ft 467 kts 127°
2026-04-26 07:15 46.55750 12.87704 35123 ft 467 kts 127°
2026-04-26 07:15 46.51792 12.95173 35102 ft 467 kts 127°
2026-04-26 07:16 46.47854 13.02584 35106 ft 466 kts 128°
2026-04-26 07:16 46.43878 13.10048 35105 ft 466 kts 128°
2026-04-26 07:17 46.39900 13.17494 35100 ft 467 kts 128°
2026-04-26 07:17 46.35914 13.24934 35102 ft 467 kts 128°
2026-04-26 07:18 46.31926 13.32360 35093 ft 468 kts 128°
2026-04-26 07:18 46.27952 13.39741 35091 ft 468 kts 128°
2026-04-26 07:19 46.23918 13.47212 35099 ft 468 kts 128°
2026-04-26 07:19 46.19930 13.54577 35095 ft 469 kts 128°
2026-04-26 07:20 46.15900 13.62002 35093 ft 469 kts 128°
2026-04-26 07:20 46.11869 13.69408 35092 ft 469 kts 128°
2026-04-26 07:21 46.07836 13.76800 35095 ft 469 kts 128°
2026-04-26 07:21 46.03816 13.84148 35092 ft 469 kts 128°
2026-04-26 07:22 45.99775 13.91514 35097 ft 469 kts 128°
2026-04-26 07:22 45.95726 13.98875 35096 ft 469 kts 128°
2026-04-26 07:23 45.91678 14.06216 35102 ft 468 kts 128°
2026-04-26 07:23 45.87623 14.13549 35090 ft 468 kts 128°
2026-04-26 07:24 45.83575 14.20853 35103 ft 467 kts 128°
2026-04-26 07:24 45.79530 14.28129 35098 ft 467 kts 128°
2026-04-26 07:25 45.75476 14.35405 35105 ft 467 kts 128°
2026-04-26 07:25 45.71444 14.42623 35102 ft 466 kts 128°
2026-04-26 07:26 45.67387 14.49867 35108 ft 466 kts 128°
2026-04-26 07:26 45.63324 14.57103 35106 ft 467 kts 128°
2026-04-26 07:27 45.59254 14.64332 35108 ft 467 kts 128°
2026-04-26 07:27 45.55176 14.71559 35102 ft 467 kts 128°
2026-04-26 07:28 45.51094 14.78774 35100 ft 467 kts 128°
2026-04-26 07:28 45.47014 14.85969 35099 ft 467 kts 129°
2026-04-26 07:29 45.42830 14.93039 35110 ft 467 kts 131°
2026-04-26 07:29 45.38554 14.99929 35105 ft 468 kts 131°
2026-04-26 07:30 45.34240 15.06869 35104 ft 468 kts 131°
2026-04-26 07:30 45.29941 15.13820 35113 ft 468 kts 131°
2026-04-26 07:31 45.25647 15.20772 35117 ft 468 kts 131°
2026-04-26 07:31 45.21349 15.27718 35108 ft 468 kts 131°
2026-04-26 07:32 45.17044 15.34656 35107 ft 468 kts 131°
2026-04-26 07:32 45.12738 15.41577 35109 ft 468 kts 131°
2026-04-26 07:33 45.08453 15.48446 35112 ft 468 kts 131°
2026-04-26 07:33 45.04137 15.55349 35104 ft 468 kts 131°
2026-04-26 07:34 44.99820 15.62236 35108 ft 468 kts 131°
2026-04-26 07:34 44.95497 15.69117 35105 ft 468 kts 131°
2026-04-26 07:35 44.91161 15.76000 35103 ft 468 kts 132°
2026-04-26 07:35 44.86826 15.82864 35103 ft 469 kts 132°
2026-04-26 07:36 44.82509 15.89684 35097 ft 469 kts 132°
2026-04-26 07:36 44.78156 15.96544 35099 ft 469 kts 132°
2026-04-26 07:37 44.73797 16.03397 35098 ft 470 kts 132°
2026-04-26 07:37 44.69428 16.10248 35093 ft 470 kts 132°
2026-04-26 07:38 44.65086 16.17040 35098 ft 470 kts 132°
2026-04-26 07:38 44.60712 16.23866 35093 ft 470 kts 132°
2026-04-26 07:39 44.56334 16.30682 35090 ft 470 kts 133°
2026-04-26 07:39 44.51950 16.37490 35088 ft 470 kts 133°
2026-04-26 07:40 44.47590 16.44246 35091 ft 469 kts 133°
2026-04-26 07:40 44.43205 16.51022 35085 ft 469 kts 133°
2026-04-26 07:41 44.38817 16.57788 35088 ft 469 kts 133°
2026-04-26 07:41 44.34426 16.64541 35090 ft 469 kts 133°
2026-04-26 07:42 44.30038 16.71274 35091 ft 469 kts 133°
2026-04-26 07:42 44.25638 16.78009 35087 ft 469 kts 133°
2026-04-26 07:43 44.21269 16.84681 35095 ft 469 kts 133°
2026-04-26 07:43 44.16866 16.91389 35089 ft 469 kts 133°
2026-04-26 07:44 44.12457 16.98090 35092 ft 469 kts 133°
2026-04-26 07:44 44.08040 17.04787 35091 ft 469 kts 133°
2026-04-26 07:45 44.03619 17.11474 35089 ft 470 kts 133°
2026-04-26 07:45 43.99190 17.18159 35095 ft 470 kts 133°
2026-04-26 07:46 43.94754 17.24836 35090 ft 470 kts 134°
2026-04-26 07:46 43.90347 17.31457 35092 ft 470 kts 134°
2026-04-26 07:47 43.85909 17.38108 35097 ft 470 kts 134°
2026-04-26 07:47 43.81457 17.44764 35107 ft 470 kts 134°
2026-04-26 07:48 43.77002 17.51412 35102 ft 471 kts 134°
2026-04-26 07:48 43.72700 17.58264 35099 ft 472 kts 129°
2026-04-26 07:49 43.68645 17.65424 35106 ft 473 kts 128°
2026-04-26 07:49 43.64624 17.72575 35109 ft 474 kts 129°
2026-04-26 07:50 43.58477 17.83338 35107 ft 476 kts 129°
2026-04-26 07:50 43.54360 17.90477 35108 ft 475 kts 129°
2026-04-26 07:51 43.50230 17.97619 35104 ft 475 kts 129°
2026-04-26 07:51 43.46105 18.04738 35104 ft 475 kts 129°
2026-04-26 07:52 43.41975 18.11850 35099 ft 475 kts 129°
2026-04-26 07:52 43.37873 18.18898 35103 ft 475 kts 130°
2026-04-26 07:53 43.33740 18.25981 35098 ft 475 kts 130°
2026-04-26 07:53 43.29596 18.33066 35098 ft 475 kts 130°
2026-04-26 07:54 43.25444 18.40148 35098 ft 475 kts 130°
2026-04-26 07:54 43.21288 18.47220 35104 ft 476 kts 130°
2026-04-26 07:55 43.17151 18.54242 35097 ft 476 kts 130°
2026-04-26 07:55 43.12976 18.61312 35100 ft 477 kts 130°
2026-04-26 07:56 43.08794 18.68377 35098 ft 478 kts 130°
2026-04-26 07:56 43.04596 18.75451 35095 ft 478 kts 130°
2026-04-26 07:57 43.00427 18.82460 35106 ft 478 kts 130°
2026-04-26 07:57 42.96198 18.89553 35096 ft 478 kts 130°
2026-04-26 07:58 42.92021 18.96542 35104 ft 478 kts 131°
2026-04-26 07:58 42.87802 19.03585 35100 ft 479 kts 131°
2026-04-26 07:59 42.83573 19.10626 35098 ft 480 kts 131°
2026-04-26 07:59 42.80055 19.16473 35101 ft 480 kts 131°
2026-04-26 08:00 42.75819 19.23496 35084 ft 480 kts 131°
2026-04-26 08:00 42.71577 19.30510 35099 ft 480 kts 131°
2026-04-26 08:01 42.67334 19.37514 35093 ft 479 kts 131°
2026-04-26 08:01 42.63083 19.44512 35078 ft 480 kts 131°
2026-04-26 08:02 42.58859 19.51452 35100 ft 480 kts 131°
2026-04-26 08:02 42.54606 19.58424 35095 ft 479 kts 131°
2026-04-26 08:03 42.50358 19.65391 35110 ft 479 kts 131°
2026-04-26 08:03 42.46120 19.72364 35111 ft 479 kts 131°
2026-04-26 08:04 42.41878 19.79339 35101 ft 480 kts 131°
2026-04-26 08:04 42.37629 19.86305 35098 ft 480 kts 131°
2026-04-26 08:05 42.33370 19.93267 35095 ft 480 kts 131°
2026-04-26 08:05 42.29106 20.00219 35098 ft 480 kts 131°
2026-04-26 08:06 42.24866 20.07117 35095 ft 480 kts 131°
2026-04-26 08:06 42.20591 20.14055 35093 ft 480 kts 131°
2026-04-26 08:07 42.16317 20.20976 35092 ft 480 kts 131°
2026-04-26 08:07 42.12043 20.27882 35092 ft 479 kts 131°
2026-04-26 08:08 42.07768 20.34771 35092 ft 479 kts 131°
2026-04-26 08:08 42.03490 20.41651 35091 ft 479 kts 131°
2026-04-26 08:09 41.99231 20.48484 35088 ft 479 kts 131°
2026-04-26 08:09 41.94942 20.55349 35103 ft 478 kts 131°
2026-04-26 08:10 41.90657 20.62193 35095 ft 478 kts 132°
2026-04-26 08:10 41.86365 20.69031 35098 ft 478 kts 131°
2026-04-26 08:11 41.82073 20.75854 35086 ft 478 kts 131°
2026-04-26 08:11 41.77801 20.82630 35095 ft 478 kts 131°
2026-04-26 08:12 41.73508 20.89425 35089 ft 478 kts 132°
2026-04-26 08:12 41.69210 20.96210 35090 ft 478 kts 131°
2026-04-26 08:13 41.64904 21.02994 35083 ft 478 kts 131°
2026-04-26 08:13 41.60592 21.09771 35083 ft 478 kts 131°
2026-04-26 08:14 41.56302 21.16500 35071 ft 478 kts 131°
2026-04-26 08:14 41.51987 21.23253 35078 ft 477 kts 131°
2026-04-26 08:15 41.47676 21.29982 35078 ft 477 kts 131°
2026-04-26 08:15 41.43362 21.36703 35085 ft 477 kts 131°
2026-04-26 08:16 41.39042 21.43418 35084 ft 476 kts 131°
2026-04-26 08:16 41.34727 21.50110 35090 ft 476 kts 131°
2026-04-26 08:17 41.30438 21.56748 35086 ft 476 kts 131°
2026-04-26 08:17 41.26113 21.63425 35076 ft 476 kts 131°
2026-04-26 08:18 41.21789 21.70087 35082 ft 475 kts 131°
2026-04-26 08:18 41.17466 21.76734 35088 ft 475 kts 131°
2026-04-26 08:19 41.13136 21.83378 35070 ft 475 kts 131°
2026-04-26 08:19 41.08832 21.89967 35077 ft 476 kts 131°
2026-04-26 08:20 41.04674 21.96787 35072 ft 476 kts 127°
2026-04-26 08:20 41.00724 22.03822 35066 ft 475 kts 127°
2026-04-26 08:21 40.96773 22.10840 35063 ft 475 kts 127°
2026-04-26 08:21 40.92792 22.17817 35063 ft 475 kts 127°
2026-04-26 08:22 40.88794 22.24779 35057 ft 475 kts 127°
2026-04-26 08:22 40.84826 22.31676 35051 ft 474 kts 127°
2026-04-26 08:23 40.80827 22.38617 35058 ft 473 kts 127°
2026-04-26 08:23 40.76832 22.45534 35048 ft 473 kts 127°
2026-04-26 08:24 40.72846 22.52434 35054 ft 473 kts 127°
2026-04-26 08:24 40.68885 22.59284 35053 ft 472 kts 127°
2026-04-26 08:25 40.64903 22.66159 35051 ft 472 kts 127°
2026-04-26 08:25 40.60916 22.73027 35048 ft 471 kts 127°
2026-04-26 08:26 40.56927 22.79881 35047 ft 471 kts 127°
2026-04-26 08:26 40.52969 22.86669 35045 ft 470 kts 127°
2026-04-26 08:27 40.48981 22.93495 35054 ft 470 kts 127°
2026-04-26 08:27 40.44948 23.00259 35045 ft 470 kts 130°
2026-04-26 08:28 40.40494 23.06544 35056 ft 470 kts 133°
2026-04-26 08:28 40.35926 23.12706 35049 ft 471 kts 133°
2026-04-26 08:29 40.31381 23.18880 35043 ft 471 kts 133°
2026-04-26 08:29 40.26889 23.25038 35046 ft 470 kts 133°
2026-04-26 08:30 40.22372 23.31240 35042 ft 470 kts 133°
2026-04-26 08:30 40.17855 23.37433 35035 ft 470 kts 133°
2026-04-26 08:31 40.13338 23.43611 35042 ft 469 kts 133°
2026-04-26 08:31 40.08822 23.49771 35043 ft 469 kts 133°
2026-04-26 08:32 40.04315 23.55907 35043 ft 468 kts 133°
2026-04-26 08:32 39.99831 23.62000 35042 ft 467 kts 133°
2026-04-26 08:33 39.95323 23.68113 35054 ft 467 kts 132°
2026-04-26 08:33 39.90815 23.74214 35048 ft 467 kts 132°
2026-04-26 08:34 39.86300 23.80311 35045 ft 466 kts 132°
2026-04-26 08:34 39.81789 23.86390 35045 ft 466 kts 132°
2026-04-26 08:35 39.77312 23.92412 35042 ft 465 kts 132°
2026-04-26 08:35 39.72814 23.98451 35039 ft 465 kts 132°
2026-04-26 08:36 39.68303 24.04494 35041 ft 465 kts 132°
2026-04-26 08:36 39.63796 24.10520 35041 ft 465 kts 132°
2026-04-26 08:37 39.59287 24.16537 35043 ft 464 kts 132°
2026-04-26 08:37 39.54805 24.22506 35048 ft 464 kts 132°
2026-04-26 08:38 39.50292 24.28505 35045 ft 464 kts 132°
2026-04-26 08:38 39.45781 24.34489 35044 ft 465 kts 132°
2026-04-26 08:39 39.41261 24.40474 35046 ft 465 kts 132°
2026-04-26 08:39 39.36737 24.46455 35046 ft 465 kts 132°
2026-04-26 08:40 39.32249 24.52389 35046 ft 464 kts 131°
2026-04-26 08:40 39.27764 24.58408 35048 ft 464 kts 131°
2026-04-26 08:41 39.23289 24.64420 35046 ft 464 kts 131°
2026-04-26 08:41 39.18814 24.70410 35042 ft 464 kts 131°
2026-04-26 08:42 39.14334 24.76389 35037 ft 463 kts 131°
2026-04-26 08:42 39.09851 24.82353 35046 ft 463 kts 131°
2026-04-26 08:43 39.05322 24.88249 35035 ft 462 kts 132°
2026-04-26 08:43 39.00810 24.94072 35041 ft 462 kts 132°
2026-04-26 08:44 38.96276 24.99926 35045 ft 461 kts 131°
2026-04-26 08:44 38.91749 25.05770 35029 ft 461 kts 131°
2026-04-26 08:45 38.87226 25.11602 35027 ft 460 kts 131°
2026-04-26 08:45 38.82708 25.17418 35033 ft 460 kts 131°
2026-04-26 08:46 38.78217 25.23185 35039 ft 459 kts 131°
2026-04-26 08:46 38.73707 25.28967 35039 ft 459 kts 131°
2026-04-26 08:47 38.69195 25.34740 35036 ft 458 kts 131°
2026-04-26 08:47 38.64681 25.40505 35039 ft 458 kts 131°
2026-04-26 08:48 38.60163 25.46264 35034 ft 457 kts 131°
2026-04-26 08:48 38.56415 25.51035 35029 ft 457 kts 131°
2026-04-26 08:49 38.51170 25.57698 35021 ft 457 kts 131°
2026-04-26 08:49 38.47390 25.62490 35031 ft 456 kts 131°
2026-04-26 08:50 38.42884 25.68195 35026 ft 456 kts 131°
2026-04-26 08:50 38.38406 25.73854 35020 ft 456 kts 131°
2026-04-26 08:51 38.31664 25.82401 35008 ft 455 kts 131°
2026-04-26 08:52 38.27177 25.88096 35005 ft 455 kts 131°
2026-04-26 08:52 38.22574 25.93658 35000 ft 457 kts 135°
2026-04-26 08:53 38.17765 25.98898 35005 ft 458 kts 135°
2026-04-26 08:53 38.12934 26.04161 35000 ft 457 kts 135°
2026-04-26 08:54 38.08125 26.09464 35004 ft 457 kts 135°
2026-04-26 08:54 38.03321 26.14755 35007 ft 457 kts 135°
2026-04-26 08:55 37.98512 26.20040 35005 ft 457 kts 135°
2026-04-26 08:55 37.93701 26.25320 35005 ft 457 kts 135°
2026-04-26 08:56 37.88914 26.30566 35001 ft 457 kts 135°
2026-04-26 08:56 37.84103 26.35831 34999 ft 458 kts 135°
2026-04-26 08:57 37.79289 26.41105 35000 ft 458 kts 135°
2026-04-26 08:57 37.74474 26.46375 34992 ft 458 kts 135°
2026-04-26 08:58 37.69656 26.51637 34989 ft 458 kts 135°
2026-04-26 08:58 37.64827 26.56888 34983 ft 458 kts 135°
2026-04-26 08:59 37.59987 26.62126 34978 ft 458 kts 135°
2026-04-26 08:59 37.55145 26.67362 34972 ft 458 kts 135°
2026-04-26 09:00 37.50332 26.72560 34971 ft 458 kts 135°
2026-04-26 09:00 37.45492 26.77779 34973 ft 458 kts 136°
2026-04-26 09:01 37.40648 26.82993 34972 ft 458 kts 136°
2026-04-26 09:01 37.35938 26.88371 34969 ft 456 kts 133°
2026-04-26 09:02 37.31368 26.93903 34968 ft 456 kts 133°
2026-04-26 09:02 37.26802 26.99425 34960 ft 456 kts 133°
2026-04-26 09:03 37.22246 27.04878 34963 ft 455 kts 133°
2026-04-26 09:03 37.17642 27.10355 34957 ft 455 kts 133°
2026-04-26 09:04 37.13037 27.15820 34955 ft 455 kts 134°
2026-04-26 09:04 37.08438 27.21269 34958 ft 455 kts 134°
2026-04-26 09:05 37.03837 27.26713 34962 ft 455 kts 134°
2026-04-26 09:05 36.99258 27.32121 34962 ft 455 kts 134°
2026-04-26 09:06 36.94650 27.37554 34959 ft 455 kts 134°
2026-04-26 09:06 36.90037 27.42983 34948 ft 455 kts 134°
2026-04-26 09:07 36.85423 27.48404 34946 ft 454 kts 134°
2026-04-26 09:07 36.80813 27.53810 34939 ft 454 kts 134°
2026-04-26 09:08 36.76246 27.59157 34938 ft 453 kts 134°
2026-04-26 09:08 36.71648 27.64532 34940 ft 454 kts 134°
2026-04-26 09:09 36.67028 27.69923 34923 ft 454 kts 134°
2026-04-26 09:09 36.62421 27.75288 34924 ft 453 kts 135°
2026-04-26 09:10 36.57814 27.80646 34928 ft 452 kts 135°
2026-04-26 09:10 36.53209 27.85992 34925 ft 452 kts 135°
2026-04-26 09:11 36.48634 27.91294 34913 ft 452 kts 135°
2026-04-26 09:11 36.44001 27.96655 34913 ft 452 kts 135°
2026-04-26 09:12 36.39433 28.01932 34915 ft 451 kts 135°
2026-04-26 09:12 36.34835 28.07235 34915 ft 451 kts 135°
2026-04-26 09:13 36.30446 28.12776 34913 ft 450 kts 131°
2026-04-26 09:13 36.26236 28.18523 34914 ft 450 kts 130°
2026-04-26 09:14 36.22011 28.24248 34919 ft 450 kts 131°
2026-04-26 09:14 36.17754 28.29942 34923 ft 450 kts 131°
2026-04-26 09:15 36.13497 28.35613 34931 ft 449 kts 131°
2026-04-26 09:15 36.09243 28.41274 34933 ft 449 kts 131°
2026-04-26 09:16 36.05008 28.46893 34944 ft 449 kts 131°
2026-04-26 09:16 36.00739 28.52541 34941 ft 450 kts 132°
2026-04-26 09:17 35.96469 28.58186 34948 ft 450 kts 132°
2026-04-26 09:17 35.92191 28.63833 34946 ft 450 kts 132°
2026-04-26 09:18 35.87902 28.69459 34946 ft 450 kts 133°
2026-04-26 09:18 35.83409 28.74862 34951 ft 451 kts 135°
2026-04-26 09:19 35.78832 28.80174 34946 ft 452 kts 136°
2026-04-26 09:19 35.74298 28.85461 34947 ft 452 kts 136°
2026-04-26 09:20 35.69740 28.90809 34949 ft 453 kts 136°
2026-04-26 09:20 35.65180 28.96164 34948 ft 454 kts 136°
2026-04-26 09:21 35.60610 29.01525 34948 ft 455 kts 136°
2026-04-26 09:21 35.56024 29.06893 34950 ft 456 kts 136°
2026-04-26 09:22 35.51425 29.12266 34951 ft 457 kts 137°
2026-04-26 09:22 35.46816 29.17644 34950 ft 458 kts 137°
2026-04-26 09:23 35.42221 29.22995 34948 ft 459 kts 137°
2026-04-26 09:23 35.37586 29.28383 34952 ft 459 kts 137°
2026-04-26 09:24 35.32942 29.33774 34948 ft 460 kts 137°
2026-04-26 09:24 35.28296 29.39158 34952 ft 460 kts 137°
2026-04-26 09:25 35.23668 29.44512 34951 ft 460 kts 138°
2026-04-26 09:25 35.19013 29.49890 34951 ft 460 kts 138°
2026-04-26 09:26 35.14356 29.55259 34950 ft 460 kts 138°
2026-04-26 09:26 35.09696 29.60625 34953 ft 460 kts 139°
2026-04-26 09:27 35.05040 29.65977 34951 ft 460 kts 139°
2026-04-26 09:27 35.00376 29.71331 34948 ft 459 kts 139°
2026-04-26 09:28 34.95727 29.76679 34949 ft 459 kts 138°
2026-04-26 09:28 34.91157 29.82042 34949 ft 458 kts 138°
2026-04-26 09:29 34.86566 29.87432 34951 ft 458 kts 139°
2026-04-26 09:29 34.81963 29.92814 34949 ft 457 kts 139°
2026-04-26 09:30 34.77370 29.98170 34950 ft 457 kts 139°
2026-04-26 09:30 34.73299 30.04143 34960 ft 460 kts 127°
2026-04-26 09:31 34.69718 30.10598 34951 ft 461 kts 126°
2026-04-26 09:31 34.66163 30.17006 34948 ft 461 kts 127°
2026-04-26 09:32 34.62539 30.23438 34952 ft 461 kts 127°
2026-04-26 09:32 34.58900 30.29847 34949 ft 461 kts 127°
2026-04-26 09:33 34.55252 30.36253 34953 ft 462 kts 127°
2026-04-26 09:33 34.51590 30.42674 34949 ft 463 kts 127°
2026-04-26 09:34 34.47917 30.49105 34952 ft 464 kts 128°
2026-04-26 09:34 34.44260 30.55499 34954 ft 465 kts 128°
2026-04-26 09:35 34.40573 30.61933 34953 ft 465 kts 128°
2026-04-26 09:35 34.36876 30.68373 34949 ft 466 kts 128°
2026-04-26 09:36 34.33169 30.74820 34949 ft 467 kts 128°
2026-04-26 09:36 34.29454 30.81270 34953 ft 467 kts 128°
2026-04-26 09:37 34.25713 30.87636 34946 ft 465 kts 133°
2026-04-26 09:37 34.20990 30.92843 34944 ft 456 kts 151°
2026-04-26 09:38 34.16512 30.96179 34947 ft 455 kts 153°
2026-04-26 09:38 34.11091 31.00132 34949 ft 455 kts 153°
2026-04-26 09:39 34.05678 31.04123 34952 ft 455 kts 152°
2026-04-26 09:39 34.00276 31.08139 34951 ft 456 kts 152°
2026-04-26 09:40 33.94875 31.12162 34953 ft 456 kts 152°
2026-04-26 09:40 33.89508 31.16154 34956 ft 456 kts 153°
2026-04-26 09:41 33.84104 31.20166 34949 ft 456 kts 153°
2026-04-26 09:41 33.78691 31.24177 34955 ft 457 kts 153°
2026-04-26 09:42 33.73271 31.28188 34953 ft 457 kts 153°
2026-04-26 09:42 33.67888 31.32165 34957 ft 457 kts 153°
2026-04-26 09:43 33.62461 31.36168 34958 ft 457 kts 153°
2026-04-26 09:43 33.57032 31.40168 34955 ft 458 kts 153°
2026-04-26 09:44 33.51599 31.44164 34959 ft 458 kts 154°
2026-04-26 09:44 33.46160 31.48158 34961 ft 459 kts 154°
2026-04-26 09:45 33.40703 31.52161 34958 ft 459 kts 154°
2026-04-26 09:45 33.35282 31.56130 34956 ft 460 kts 154°
2026-04-26 09:46 33.29815 31.60127 34958 ft 460 kts 154°
2026-04-26 09:46 33.24345 31.64121 34959 ft 461 kts 155°
2026-04-26 09:47 33.18865 31.68116 34958 ft 462 kts 155°
2026-04-26 09:47 33.13364 31.72121 34963 ft 462 kts 155°
2026-04-26 09:48 33.07859 31.76122 34960 ft 463 kts 155°
2026-04-26 09:48 33.02383 31.80096 34957 ft 464 kts 155°
2026-04-26 09:49 32.96863 31.84097 34967 ft 465 kts 155°
2026-04-26 09:49 32.91328 31.88102 34966 ft 466 kts 155°
2026-04-26 09:50 32.85786 31.92107 34959 ft 466 kts 155°
2026-04-26 09:50 32.80228 31.96118 34962 ft 467 kts 156°
2026-04-26 09:51 32.74677 32.00118 34963 ft 467 kts 156°
2026-04-26 09:51 32.69121 32.04117 34962 ft 467 kts 156°
2026-04-26 09:52 32.63608 32.08239 34956 ft 473 kts 149°
2026-04-26 09:52 32.56590 32.16642 34960 ft 483 kts 139°
2026-04-26 09:53 32.52073 32.22545 34959 ft 483 kts 139°
2026-04-26 09:53 32.47517 32.28404 34957 ft 482 kts 140°
2026-04-26 09:54 32.42945 32.34217 34959 ft 482 kts 140°
2026-04-26 09:54 32.38357 32.40026 34962 ft 482 kts 140°
2026-04-26 09:55 32.33800 32.45790 34963 ft 483 kts 140°
2026-04-26 09:55 32.29207 32.51594 34966 ft 483 kts 140°
2026-04-26 09:56 32.24609 32.57395 34966 ft 483 kts 140°
2026-04-26 09:56 32.20001 32.63201 34966 ft 484 kts 141°
2026-04-26 09:57 32.15388 32.69002 34957 ft 484 kts 141°
2026-04-26 09:57 32.10798 32.74767 34958 ft 485 kts 141°
2026-04-26 09:58 32.06176 32.80562 34958 ft 486 kts 141°
2026-04-26 09:58 32.01539 32.86367 34960 ft 486 kts 141°
2026-04-26 09:59 31.96894 32.92173 34971 ft 487 kts 141°
2026-04-26 09:59 31.92231 32.97992 34967 ft 488 kts 141°
2026-04-26 10:00 31.87598 33.03768 34961 ft 489 kts 141°
2026-04-26 10:00 31.82779 33.09351 34941 ft 475 kts 154°
2026-04-26 10:01 31.79950 33.11182 34971 ft 457 kts 168°
2026-04-26 10:01 31.76961 33.12263 34959 ft 442 kts 179°
2026-04-26 10:01 31.73962 33.12578 34975 ft 429 kts 188°
2026-04-26 10:01 31.70973 33.12666 34961 ft 430 kts 188°
2026-04-26 10:02 31.64974 33.12896 34964 ft 433 kts 187°
2026-04-26 10:02 31.58937 33.13186 34964 ft 435 kts 187°
2026-04-26 10:03 31.52883 33.13492 34961 ft 436 kts 187°
2026-04-26 10:03 31.46806 33.13797 34962 ft 437 kts 187°
2026-04-26 10:04 31.40727 33.14105 34953 ft 439 kts 184°
2026-04-26 10:04 31.34678 33.15660 34956 ft 457 kts 169°
2026-04-26 10:05 31.28897 33.19036 34972 ft 467 kts 161°
2026-04-26 10:05 31.23216 33.22718 34966 ft 466 kts 161°
2026-04-26 10:06 31.17546 33.26363 34966 ft 465 kts 161°
2026-04-26 10:06 31.11858 33.29961 34968 ft 465 kts 161°
2026-04-26 10:07 31.06153 33.33542 34968 ft 466 kts 161°
2026-04-26 10:07 31.00470 33.37103 34973 ft 467 kts 162°
2026-04-26 10:08 30.94730 33.40696 34970 ft 469 kts 162°
2026-04-26 10:08 30.88953 33.44304 34478 ft 477 kts 161°
2026-04-26 10:09 30.86027 33.46131 33911 ft 476 kts 161°
2026-04-26 10:09 30.83121 33.47951 33426 ft 472 kts 161°
2026-04-26 10:09 30.80248 33.49752 32945 ft 467 kts 161°
2026-04-26 10:09 30.77397 33.51536 32483 ft 463 kts 161°
2026-04-26 10:10 30.74577 33.53297 32026 ft 458 kts 161°
2026-04-26 10:10 30.71776 33.55045 31583 ft 454 kts 161°
2026-04-26 10:10 30.69005 33.56770 31152 ft 449 kts 161°
2026-04-26 10:10 30.66268 33.58472 30713 ft 445 kts 161°
2026-04-26 10:11 30.63549 33.60161 30289 ft 440 kts 161°
2026-04-26 10:11 30.60862 33.61829 29840 ft 436 kts 161°
2026-04-26 10:11 30.58224 33.63466 29351 ft 432 kts 161°
2026-04-26 10:11 30.55589 33.65102 28907 ft 426 kts 161°
2026-04-26 10:12 30.52984 33.66718 28473 ft 421 kts 161°
2026-04-26 10:12 30.50420 33.68307 28038 ft 416 kts 161°
2026-04-26 10:12 30.47880 33.69880 27609 ft 412 kts 161°
2026-04-26 10:12 30.45363 33.71437 27170 ft 408 kts 161°
2026-04-26 10:13 30.42865 33.72981 26747 ft 404 kts 161°
2026-04-26 10:13 30.40396 33.74507 26329 ft 400 kts 161°
2026-04-26 10:13 30.37953 33.76015 25915 ft 397 kts 161°
2026-04-26 10:13 30.35524 33.77514 25503 ft 393 kts 161°
2026-04-26 10:14 30.33119 33.78998 25098 ft 390 kts 161°
2026-04-26 10:14 30.30733 33.80469 24694 ft 387 kts 160°
2026-04-26 10:14 30.28361 33.81930 24297 ft 385 kts 160°
2026-04-26 10:14 30.26007 33.83379 23895 ft 382 kts 160°
2026-04-26 10:15 30.23664 33.84821 23490 ft 380 kts 160°
2026-04-26 10:15 30.21365 33.86236 23029 ft 378 kts 160°
2026-04-26 10:15 30.19055 33.87656 22591 ft 374 kts 160°
2026-04-26 10:15 30.16770 33.89062 22201 ft 370 kts 160°
2026-04-26 10:16 30.14502 33.90456 21812 ft 367 kts 160°
2026-04-26 10:16 30.12258 33.91835 21421 ft 364 kts 160°
2026-04-26 10:16 30.10058 33.93279 20998 ft 368 kts 151°
2026-04-26 10:16 30.08159 33.95317 20535 ft 377 kts 137°
2026-04-26 10:17 30.06635 33.97778 20017 ft 379 kts 126°
2026-04-26 10:17 30.05483 34.00537 19402 ft 380 kts 120°
2026-04-26 10:17 30.04419 34.03327 18813 ft 378 kts 119°
2026-04-26 10:17 30.03390 34.06067 18267 ft 374 kts 119°
2026-04-26 10:18 30.02361 34.08803 17651 ft 370 kts 119°
2026-04-26 10:18 30.01335 34.11509 17007 ft 366 kts 119°
2026-04-26 10:18 30.00315 34.14176 16432 ft 362 kts 119°
2026-04-26 10:18 29.99301 34.16814 15877 ft 357 kts 119°
2026-04-26 10:19 29.98297 34.19416 15319 ft 353 kts 119°
2026-04-26 10:19 29.97296 34.22002 14746 ft 350 kts 119°
2026-04-26 10:19 29.96306 34.24556 14196 ft 347 kts 119°
2026-04-26 10:19 29.95335 34.27061 13903 ft 335 kts 119°
2026-04-26 10:20 29.94410 34.29452 13749 ft 319 kts 119°
2026-04-26 10:20 29.93818 34.30983 13530 ft 313 kts 119°
2026-04-26 10:20 29.92643 34.34005 13017 ft 304 kts 119°
2026-04-26 10:20 29.91795 34.36181 12584 ft 300 kts 119°
2026-04-26 10:21 29.90940 34.38371 12137 ft 298 kts 119°
2026-04-26 10:21 29.90096 34.40535 11673 ft 295 kts 119°
2026-04-26 10:21 29.89257 34.42682 11233 ft 292 kts 118°
2026-04-26 10:21 29.88425 34.44812 10806 ft 290 kts 118°
2026-04-26 10:22 29.87600 34.46925 10384 ft 288 kts 118°
2026-04-26 10:22 29.86783 34.49018 9974 ft 286 kts 118°
2026-04-26 10:22 29.85970 34.51099 9516 ft 284 kts 118°
2026-04-26 10:22 29.85159 34.53173 9034 ft 283 kts 118°
2026-04-26 10:23 29.84353 34.55238 8602 ft 281 kts 118°
2026-04-26 10:23 29.83822 34.56596 8315 ft 280 kts 118°
2026-04-26 10:23 29.83021 34.58640 7867 ft 279 kts 118°
2026-04-26 10:23 29.82222 34.60677 7381 ft 279 kts 117°
2026-04-26 10:24 29.81425 34.62711 7006 ft 276 kts 117°
2026-04-26 10:24 29.80654 34.64681 6805 ft 266 kts 118°
2026-04-26 10:24 29.79660 34.67223 6433 ft 256 kts 118°
2026-04-26 10:24 29.78943 34.69049 6243 ft 247 kts 117°
2026-04-26 10:25 29.78466 34.70259 6008 ft 245 kts 118°
2026-04-26 10:25 29.77778 34.72012 5674 ft 242 kts 118°
2026-04-26 10:25 29.77092 34.73757 5428 ft 235 kts 118°
2026-04-26 10:25 29.76440 34.75422 5339 ft 220 kts 118°
2026-04-26 10:26 29.75819 34.76993 5039 ft 212 kts 117°
2026-04-26 10:26 29.75219 34.78530 4813 ft 204 kts 120°
2026-04-26 10:26 29.74362 34.79681 4607 ft 181 kts 155°
2026-04-26 10:26 29.73226 34.80193 4213 ft 175 kts 165°
2026-04-26 10:27 29.72085 34.80635 3969 ft 169 kts 164°
2026-04-26 10:27 29.70978 34.81062 3771 ft 169 kts 164°
2026-04-26 10:27 29.69864 34.81486 3468 ft 168 kts 164°
2026-04-26 10:27 29.68765 34.81902 3315 ft 163 kts 164°
2026-04-26 10:28 29.67678 34.82311 3280 ft 166 kts 164°
2026-04-26 10:28 29.66576 34.82729 3254 ft 168 kts 166°
2026-04-26 10:28 29.65423 34.82660 3294 ft 171 kts 208°
2026-04-26 10:28 29.64355 34.81996 3300 ft 176 kts 206°
2026-04-26 10:29 29.63330 34.81418 3282 ft 151 kts 206°
2026-04-26 10:29 29.62430 34.80886 3129 ft 142 kts 205°
2026-04-26 10:29 29.61540 34.80427 2843 ft 141 kts 205°
2026-04-26 10:29 29.60727 34.79795 2589 ft 139 kts 216°
2026-04-26 10:30 29.60023 34.79078 2408 ft 133 kts 219°
2026-04-26 10:30 29.59395 34.78435 2410 ft 106 kts 221°
2026-04-26 10:30 29.58953 34.77985 2418 ft 60 kts 221°
2026-04-26 10:30 29.58737 34.77764 2423 ft 31 kts 221°
2026-04-26 10:31 29.58701 34.77621 2425 ft 19 kts 307°
2026-04-26 10:31 29.58786 34.77507 2423 ft 16 kts 310°
2026-04-26 10:31 29.58858 34.77471 2427 ft 12 kts 43°
2026-04-26 10:31 29.58921 34.77530 2425 ft 11 kts 38°
2026-04-26 10:32 29.58981 34.77588 2423 ft 11 kts 40°
2026-04-26 10:32 29.59040 34.77645 2423 ft 11 kts 40°
2026-04-26 10:32 29.59099 34.77693 2423 ft 11 kts
2026-04-26 10:32 29.59142 34.77655 2422 ft 6 kts 312°
2026-04-26 10:33 29.59152 34.77642 2422 ft 0 kts 311°